This demonstration page uses our WeatherBlox Daily Observations layout. Learn more.

Hourly Observations for November 23, 2018

Temp ( °F °C ) Dew Point ( °F °C ) Humidity (%) Winds ( mph kmh ) Pressure ( in mb ) Visibility ( mi km ) Precip ( " mm )
12:15 am 00:15 Clear 46 8 42 5.3 83 83 S 10 17 29.65 1004 10 16.09344 0 0
12:35 am 00:35 Clear 46 8 42 5.5 84 84 SSE 12 19 29.65 1004 10 16.09344 0 0
12:55 am 00:55 Clear 46 7.8 42 5.6 86 86 SSE 12 19 29.62 1003 10 16.09344 0 0
1:15 am 01:15 Clear 46 7.5 42 5.7 88 88 S 10 17 29.62 1003 10 16.09344 0 0
1:35 am 01:35 Clear 45 7.3 42 5.6 89 89 S 7 11 29.62 1003 10 16.09344 0 0
1:55 am 01:55 Clear 45 7.2 42 5.7 90 90 S 7 11 29.62 1003 10 16.09344 0 0
2:15 am 02:15 Clear 45 7.3 43 5.9 91 91 S 7 11 29.62 1003 10 16.09344 0 0
2:35 am 02:35 Partly Cloudy 45 7.3 43 6 92 92 S 8 13 29.62 1003 10 16.09344 0 0
2:55 am 02:55 Mostly Cloudy 45 7.2 43 6 92 92 SSE 6 9 29.62 1003 10 16.09344 0 0
3:15 am 03:15 Cloudy 45 7.1 43 6 93 93 SSE 6 9 29.62 1003 10 16.09344 0 0
3:35 am 03:35 Cloudy 44 6.9 42 5.8 93 93 S 6 9 29.59 1002 10 16.09344 0 0
3:55 am 03:55 Cloudy 44 6.7 43 5.9 95 95 SSE 3 6 29.59 1002 10 16.09344 0 0
4:15 am 04:15 Mostly Cloudy 44 6.7 43 6 95 95 SSE 6 9 29.59 1002 10 16.09344 0 0
4:35 am 04:35 Partly Cloudy 44 6.6 42 5.8 95 95 S 7 11 29.59 1002 10 16.09344 0 0
4:55 am 04:55 Clear 44 6.5 42 5.8 95 95 S 6 9 29.59 1002 10 16.09344 0 0
5:15 am 05:15 Clear 43 6.2 42 5.6 96 96 SSW 6 9 29.59 1002 10 16.09344 0 0
5:35 am 05:35 Clear 43 5.9 42 5.4 97 97 SSW 8 13 29.59 1002 10 16.09344 0 0
5:55 am 05:55 Partly Cloudy 41 5.2 41 5 99 99 SW 8 13 29.59 1002 10 16.09344 0 0
6:15 am 06:15 Cloudy 42 5.6 42 5.5 99 99 SW 7 11 29.59 1002 10 16.09344 0 0
6:35 am 06:35 Cloudy 42 5.5 42 5.4 99 99 SW 6 9 29.59 1002 10 16.09344 0 0
6:55 am 06:55 Cloudy 42 5.5 42 5.5 100 100 WSW 7 11 29.59 1002 10 16.09344 0 0
7:15 am 07:15 Cloudy 43 6.2 42 5.7 97 97 WSW 8 13 29.59 1002 10 16.09344 0 0
7:35 am 07:35 Cloudy 43 6.1 41 5.2 94 94 W 10 17 29.59 1002 10 16.09344 0 0
8:35 am 08:35 Mostly Cloudy 42 5.7 37 2.7 81 81 WNW 10 17 29.59 1002 10 16.09344 0 0
9:35 am 09:35 Partly Cloudy 49 9.4 37 2.8 64 64 NW 17 28 29.56 1001 10 16.09344 0 0
10:35 am 10:35 Sunny 53 11.4 35 1.6 51 51 NW 22 35 29.59 1002 10 16.09344 0 0
10:55 am 10:55 Sunny 54 12.2 34 1.2 47 47 NW 26 43 29.56 1001 10 16.09344 0 0
11:15 am 11:15 Sunny 55 12.5 34 0.9 45 45 NW 25 41 29.56 1001 10 16.09344 0 0
11:35 am 11:35 Sunny 56 13.1 33 0.6 43 43 WNW 23 37 29.56 1001 10 16.09344 0 0
11:55 am 11:55 Sunny 56 13.6 33 0.7 42 42 NW 22 35 29.56 1001 10 16.09344 0 0
12:15 pm 12:15 Sunny 57 14 33 0.5 40 40 NW 21 33 29.56 1001 10 16.09344 0 0
12:35 pm 12:35 Sunny 58 14.5 33 0.5 39 39 NW 22 35 29.56 1001 10 16.09344 0 0
12:55 pm 12:55 Sunny 59 14.9 33 0.4 37 37 NW 20 31 29.56 1001 10 16.09344 0 0
1:15 pm 13:15 Sunny 60 15.3 33 0.4 36 36 NW 23 37 29.5 999 10 16.09344 0 0
1:35 pm 13:35 Sunny 59 15.2 32 0.2 36 36 NW 21 33 29.53 1000 10 16.09344 0 0
1:55 pm 13:55 Sunny 60 15.7 32 0 35 35 NW 17 28 29.5 999 10 16.09344 0 0
2:15 pm 14:15 Sunny 61 15.9 32 -0.1 34 34 NW 20 31 29.5 999 10 16.09344 0 0
2:35 pm 14:35 Sunny 61 16 32 -0.2 33 33 WNW 22 35 29.5 999 10 16.09344 0 0
2:55 pm 14:55 Sunny 60 15.8 31 -0.6 33 33 NW 23 37 29.5 999 10 16.09344 0 0
3:15 pm 15:15 Sunny 60 15.7 31 -0.7 33 33 NW 20 31 29.53 1000 10 16.09344 0 0
3:35 pm 15:35 Sunny 60 15.6 31 -0.8 33 33 NW 18 30 29.53 1000 10 16.09344 0 0
3:55 pm 15:55 Sunny 59 15.2 31 -0.8 34 34 NW 18 30 29.56 1001 10 16.09344 0 0
4:15 pm 16:15 Sunny 59 14.8 30 -0.9 34 34 WNW 17 28 29.56 1001 10 16.09344 0 0
4:35 pm 16:35 Sunny 57 14.1 30 -1 36 36 NW 15 24 29.56 1001 10 16.09344 0 0
4:55 pm 16:55 Sunny 54 12.4 30 -1 40 40 NW 9 15 29.59 1002 10 16.09344 0 0
5:15 pm 17:15 Clear 51 10.5 30 -1.1 45 45 WNW 7 11 29.62 1003 10 16.09344 0 0
5:35 pm 17:35 Clear 48 9 29 -1.5 48 48 W 7 11 29.62 1003 10 16.09344 0 0
5:55 pm 17:55 Clear 47 8.3 29 -1.6 50 50 W 8 13 29.65 1004 10 16.09344 0 0
6:15 pm 18:15 Clear 47 8.4 29 -1.7 49 49 W 9 15 29.65 1004 10 16.09344 0 0
6:35 pm 18:35 Clear 47 8.3 28 -2 49 49 W 9 15 29.65 1004 10 16.09344 0 0
6:55 pm 18:55 Partly Cloudy 47 8.5 28 -2.1 48 48 W 9 15 29.65 1004 10 16.09344 0 0
7:15 pm 19:15 Partly Cloudy 48 8.7 28 -2.2 47 47 W 8 13 29.65 1004 10 16.09344 0 0
7:35 pm 19:35 Clear 44 6.6 28 -2.1 54 54 W 7 11 29.65 1004 10 16.09344 0 0
7:55 pm 19:55 Clear 45 7.1 28 -2.2 52 52 W 7 11 29.65 1004 10 16.09344 0 0
8:15 pm 20:15 Clear 45 7.2 28 -2.5 50 50 W 6 9 29.65 1004 10 16.09344 0 0
8:35 pm 20:35 Clear 43 6 28 -2.5 55 55 W 7 11 29.68 1005 10 16.09344 0 0
8:55 pm 20:55 Clear 43 6.2 28 -2.2 55 55 WNW 9 15 29.68 1005 10 16.09344 0 0
9:15 pm 21:15 Mostly Cloudy 42 5.5 28 -2.3 58 58 W 8 13 29.74 1007 10 16.09344 0 0
9:35 pm 21:35 Partly Cloudy 41 5.2 28 -2 60 60 W 9 15 29.74 1007 10 16.09344 0 0
9:55 pm 21:55 Clear 41 4.9 29 -1.5 64 64 W 8 13 29.74 1007 10 16.09344 0 0
10:15 pm 22:15 Clear 40 4.2 29 -1.5 67 67 WNW 7 11 29.74 1007 10 16.09344 0 0
10:35 pm 22:35 Clear 38 3.5 29 -1.5 70 70 NW 6 9 29.74 1007 10 16.09344 0 0
10:55 pm 22:55 Clear 37 2.7 29 -1.8 73 73 WNW 6 9 29.77 1008 10 16.09344 0 0
11:15 pm 23:15 Clear 37 2.6 29 -1.7 74 74 W 9 15 29.77 1008 10 16.09344 0 0
11:35 pm 23:35 Clear 38 3.2 30 -1.2 73 73 W 9 15 29.74 1007 10 16.09344 0 0
11:55 pm 23:55 Clear 37 3 29 -1.4 73 73 W 8 13 29.77 1008 10 16.09344 0 0

Powered by AerisWeather